Wind_Speed
32 32 32 32 32 32 32 32 32 32 32 33 33 33 34 34 34 34 35 35 35 36 36 37 37 37 38 39 39 39 40 41 41 42 42 43 44 45 46 47 47 48 49
33 32 32 32 32 32 32 32 32 32 32 33 33 34 34 34 35 35 35 36 36 36 36 37 37 37 37 38 39 39 40 41 41 42 42 42 43 44 46 46 47 47 47
32 32 32 32 32 32 32 32 32 32 32 32 33 34 34 35 35 35 35 35 36 36 36 36 36 36 37 38 39 40 41 41 41 42 43 43 43 44 45 46 45 45 45
33 33 32 32 32 32 32 32 31 32 32 32 33 33 34 34 34 34 34 35 36 36 35 35 36 37 37 38 39 39 40 41 41 42 42 43 44 45 45 44 44 44 44
33 33 32 32 32 32 32 32 32 32 32 32 33 33 33 34 34 34 34 35 36 36 36 36 37 37 38 38 39 39 40 40 40 41 42 43 44 44 44 43 42 43 45
33 33 33 33 33 32 32 32 32 32 32 33 33 33 33 34 34 34 35 36 36 36 36 37 37 38 39 39 40 40 40 39 40 41 42 42 41 41 41 42 42 42 43
33 33 33 33 33 33 33 33 33 33 33 33 33 33 34 34 34 35 35 36 36 36 36 37 38 39 39 40 40 40 40 40 39 40 40 40 39 39 39 40 40 40 40
33 33 33 33 33 33 33 33 33 33 33 33 33 34 34 34 35 35 35 36 36 36 37 37 38 38 39 39 40 39 39 38 38 38 37 37 37 38 38 38 38 38 38
33 33 33 33 33 33 33 33 33 33 33 34 34 34 35 35 35 35 35 36 37 37 37 37 37 38 38 38 38 37 36 36 36 35 35 35 36 37 37 37 37 36 37
32 32 33 32 33 33 33 33 34 34 34 34 34 35 35 35 35 35 36 37 37 37 37 37 37 37 37 37 36 35 34 34 34 34 34 34 35 35 36 36 36 35 35
31 32 32 32 32 33 33 33 33 33 33 34 35 35 35 35 35 35 36 36 37 37 36 36 36 36 35 35 34 34 34 33 33 33 33 33 33 34 34 34 34 34 33
31 31 31 31 32 32 32 32 32 32 33 34 34 34 34 34 35 35 36 36 36 36 35 35 35 34 34 33 33 33 32 32 31 32 32 31 31 32 32 31 32 32 32
31 30 31 31 31 31 32 32 32 32 33 33 33 33 33 33 34 34 35 35 35 35 35 34 33 33 33 32 32 31 31 30 30 30 31 31 30 30 29 29 30 31 31
31 31 31 31 30 31 31 31 32 32 32 32 32 32 31 32 32 33 33 34 34 34 33 33 33 33 32 32 31 30 29 29 29 29 29 29 29 30 29 29 30 30 30
29 30 30 30 30 30 30 30 30 30 31 30 30 29 30 30 31 31 32 32 32 32 31 31 32 32 32 31 31 30 29 28 28 28 28 28 29 29 29 29 29 28 28
29 29 30 29 29 29 29 29 29 29 29 29 29 29 29 29 29 30 30 30 30 30 30 31 31 31 31 30 29 28 28 27 27 27 27 28 28 29 28 28 27 27 26
29 29 28 28 29 28 28 28 28 28 28 29 29 29 28 28 29 29 29 29 29 28 28 29 29 29 28 28 27 27 27 27 26 27 28 28 28 28 28 26 25 24 24
30 29 29 28 28 28 28 28 28 28 28 28 28 28 28 28 28 28 28 28 27 27 28 28 28 28 27 26 26 26 26 26 26 27 28 28 28 27 26 25 24 24 24
31 30 29 28 28 28 28 28 28 28 28 28 27 27 27 27 28 28 27 27 27 27 28 28 27 26 26 25 25 25 25 25 25 26 27 26 25 25 25 24 23 23 22
31 31 30 29 28 28 28 28 28 28 28 28 27 27 26 26 26 26 26 26 26 27 27 27 26 25 24 24 24 24 24 25 25 25 25 25 25 24 23 23 23 21 21
31 31 30 30 29 28 28 27 27 27 27 27 26 26 26 25 25 25 25 25 25 25 24 24 23 23 23 23 23 24 24 24 24 24 24 24 23 22 21 21 21 21 21
30 30 30 30 30 29 28 27 26 26 26 26 25 25 25 24 24 24 24 24 24 24 23 22 22 22 22 22 22 23 23 23 23 23 22 22 22 22 21 21 21 21 22
29 29 29 30 30 29 29 28 26 26 26 25 25 25 25 24 24 23 23 23 24 24 23 22 21 21 22 22 22 23 23 22 22 22 22 22 21 20 20 21 21 21 23
28 28 28 28 29 29 29 28 26 26 25 25 24 24 24 24 24 24 24 23 23 22 21 20 20 20 21 21 22 22 22 22 22 22 22 21 20 20 20 20 21 22 23
27 26 26 27 27 28 28 27 27 26 25 24 24 24 24 24 24 23 23 22 21 20 20 20 20 20 20 21 21 21 21 22 22 21 21 20 19 19 20 20 21 23 24
26 25 25 25 26 26 26 26 26 25 25 24 23 23 23 22 22 21 21 20 20 19 19 19 20 20 20 20 21 21 22 22 22 21 21 20 19 19 20 21 22 23 24
Wind_Direction
248 249 250 251 253 255 256 258 260 261 264 266 268 270 272 274 277 278 279 280 281 283 284 284 284 285 285 285 285 285 285 284 283 282 280 279 278 277 275 274 273 271 270
248 249 250 252 254 255 257 258 261 263 265 267 268 270 273 275 276 277 279 281 282 283 285 285 285 285 286 286 286 286 286 285 284 284 284 282 280 278 277 276 274 272 271
248 249 251 253 255 256 257 259 261 264 266 268 270 272 274 275 276 278 281 282 283 284 285 285 286 286 286 287 287 287 287 287 287 287 287 285 283 280 277 276 274 272 271
249 250 252 254 255 256 258 260 262 264 266 268 271 273 275 275 277 278 280 282 284 285 285 285 286 286 287 288 289 289 289 288 288 288 288 287 286 283 279 276 275 273 272
249 250 252 254 255 257 258 260 262 265 267 270 273 275 275 276 277 279 281 283 284 284 284 285 286 287 287 289 291 290 290 291 290 289 289 289 287 285 282 278 275 274 273
249 250 251 253 255 256 259 261 263 265 268 271 273 275 275 276 278 279 280 282 283 283 283 285 286 288 288 289 290 291 291 291 291 291 291 290 287 285 284 281 278 276 275
249 251 252 253 255 257 259 262 263 266 269 271 273 275 275 276 277 279 281 283 283 283 284 286 287 288 289 289 290 290 291 292 292 292 292 291 288 286 285 284 281 279 278
249 250 252 253 255 257 259 262 264 266 269 271 274 275 275 276 277 280 282 283 284 284 285 287 288 289 289 290 290 291 291 292 293 293 292 291 289 287 286 286 285 282 279
249 251 252 254 256 258 260 262 264 266 269 271 273 275 275 276 278 280 282 284 285 285 287 288 288 289 290 291 291 292 291 292 292 293 293 292 290 288 286 287 286 284 282
250 251 252 254 256 258 260 263 265 267 269 271 273 275 276 277 278 281 283 284 284 286 287 287 289 290 291 291 292 291 291 292 293 293 293 292 291 290 289 287 286 285 285
250 251 252 254 256 259 261 263 265 267 270 272 274 276 276 277 279 281 283 285 286 286 287 287 288 290 291 291 291 291 291 293 294 294 293 293 292 292 291 287 285 284 284
250 251 252 254 256 259 261 263 265 267 270 272 274 276 277 279 281 282 284 286 286 286 286 286 288 289 290 291 291 291 292 293 293 295 294 293 293 293 292 288 286 286 285
250 251 253 255 256 258 260 263 265 268 270 272 274 276 277 279 281 283 285 287 287 286 286 286 287 288 289 290 290 291 292 293 295 296 295 293 294 295 292 290 288 288 286
250 252 254 256 257 259 261 263 265 268 270 272 274 276 277 280 282 285 286 287 287 286 286 285 286 288 289 290 290 290 291 293 294 296 297 296 296 295 293 292 291 289 287
250 252 254 256 258 259 261 262 264 267 270 272 274 276 278 281 283 286 287 287 287 286 286 286 286 288 289 289 289 289 290 292 294 296 297 297 298 297 296 295 294 291 289
248 251 253 255 257 259 260 261 263 266 269 272 274 277 279 281 283 286 288 288 287 286 286 287 286 288 289 289 288 289 290 291 293 295 296 298 300 298 298 299 296 293 290
247 250 252 254 256 258 259 261 263 266 269 271 274 277 280 282 284 286 289 289 288 287 289 288 289 290 290 290 288 288 289 291 293 294 296 298 301 300 299 299 298 296 292
248 249 250 252 255 256 258 260 262 265 268 271 274 277 280 282 284 285 287 288 289 288 289 289 290 290 289 289 288 287 286 289 291 293 295 297 299 298 298 297 297 299 297
247 248 250 251 253 255 258 260 263 266 267 269 273 277 279 281 283 285 286 288 289 288 288 288 289 289 289 288 287 286 286 288 290 292 295 297 298 298 297 296 297 300 300
246 248 250 251 252 254 256 259 263 265 266 270 273 275 277 280 283 284 286 288 290 289 288 287 287 287 288 288 287 287 288 288 291 294 295 296 297 297 297 298 299 298 300
246 247 249 251 252 253 256 259 261 264 267 270 272 275 278 280 282 284 285 287 290 291 290 288 286 285 285 287 288 288 290 292 294 295 295 295 295 295 298 299 300 301 302
248 248 249 251 252 254 256 258 261 264 267 270 272 273 276 278 281 283 285 287 289 291 291 288 286 284 285 287 289 289 291 292 294 295 295 296 296 294 295 297 298 300 303
248 250 250 252 253 254 255 257 260 263 265 266 268 271 274 276 279 281 284 287 289 290 290 287 285 285 284 286 287 289 291 292 294 295 294 294 293 293 294 296 296 298 302
249 251 252 253 253 254 256 256 259 262 264 264 266 270 274 276 278 281 283 286 288 288 288 285 284 285 287 288 288 288 290 291 293 293 294 294 292 292 295 296 297 299 302
248 249 250 251 252 253 254 255 256 259 262 264 266 269 273 276 278 279 282 285 287 287 286 286 285 286 287 287 287 288 290 292 293 293 294 293 292 293 295 297 299 302 303
245 247 248 248 249 251 252 254 255 255 258 262 266 268 272 277 278 279 281 282 283 284 286 287 289 286 285 285 286 288 290 290 292 292 292 292 294 295 296 298 300 303 304
Height
5735 5737 5739 5742 5744 5746 5748 5749 5751 5752 5753 5753 5753 5753 5753 5752 5752 5751 5749 5748 5747 5745 5743 5741 5739 5737 5735 5733 5731 5729 5727 5725 5723 5722 5722 5721 5719 5718 5717 5717 5717 5718 5719
5728 5730 5733 5735 5737 5739 5741 5743 5744 5745 5745 5745 5745 5745 5745 5744 5743 5742 5741 5740 5738 5737 5735 5733 5730 5728 5726 5724 5722 5720 5718 5715 5713 5711 5710 5709 5709 5706 5705 5705 5705 5705 5706
5721 5723 5726 5728 5730 5732 5734 5735 5736 5737 5737 5737 5737 5737 5736 5735 5735 5734 5732 5731 5729 5728 5726 5724 5722 5720 5718 5715 5713 5710 5708 5705 5703 5700 5698 5696 5695 5694 5695 5693 5693 5692 5692
5713 5716 5719 5721 5723 5725 5727 5728 5729 5729 5730 5730 5729 5729 5728 5727 5726 5725 5724 5722 5721 5719 5717 5715 5713 5711 5709 5706 5704 5701 5698 5695 5693 5690 5687 5684 5682 5680 5680 5682 5681 5680 5680
5706 5709 5711 5714 5716 5717 5719 5720 5721 5722 5722 5722 5721 5721 5720 5719 5718 5716 5715 5714 5712 5710 5708 5706 5704 5702 5700 5697 5694 5691 5688 5685 5682 5679 5676 5673 5670 5667 5666 5668 5669 5669 5668
5698 5701 5703 5706 5707 5709 5711 5712 5713 5713 5714 5714 5713 5712 5711 5710 5709 5708 5707 5705 5703 5701 5699 5697 5695 5693 5690 5687 5685 5682 5678 5675 5672 5669 5665 5662 5659 5657 5654 5655 5656 5656 5656
5691 5693 5696 5698 5700 5701 5703 5704 5705 5705 5705 5705 5705 5704 5703 5702 5701 5699 5698 5696 5694 5692 5690 5687 5685 5683 5680 5677 5675 5672 5668 5665 5662 5659 5655 5652 5649 5646 5644 5643 5644 5645 5645
5683 5685 5688 5690 5692 5693 5695 5696 5696 5697 5697 5697 5696 5695 5694 5693 5692 5690 5689 5687 5685 5682 5680 5678 5675 5673 5670 5667 5665 5662 5659 5656 5652 5649 5646 5643 5640 5637 5635 5634 5633 5633 5634
5675 5678 5680 5682 5684 5685 5686 5687 5688 5688 5688 5688 5687 5686 5685 5684 5683 5681 5679 5677 5675 5673 5671 5668 5665 5663 5660 5657 5655 5652 5649 5646 5643 5640 5637 5634 5631 5628 5626 5624 5623 5622 5623
5667 5670 5672 5674 5675 5677 5678 5679 5679 5680 5680 5679 5678 5677 5676 5675 5673 5672 5670 5668 5665 5663 5661 5658 5656 5653 5651 5648 5645 5643 5640 5638 5635 5632 5629 5626 5623 5620 5618 5616 5614 5613 5613
5660 5662 5664 5665 5667 5668 5669 5670 5671 5671 5671 5670 5669 5668 5666 5665 5664 5662 5660 5658 5656 5653 5651 5649 5647 5644 5642 5639 5636 5634 5632 5629 5626 5624 5621 5618 5615 5613 5610 5608 5606 5605 5605
5652 5654 5655 5657 5659 5660 5661 5662 5662 5662 5662 5661 5660 5659 5657 5656 5655 5653 5651 5648 5646 5644 5641 5639 5637 5635 5633 5630 5628 5626 5623 5621 5619 5616 5613 5610 5608 5605 5603 5600 5599 5598 5597
5644 5646 5647 5649 5650 5652 5652 5653 5653 5653 5653 5652 5651 5650 5648 5647 5646 5644 5641 5639 5636 5634 5632 5630 5628 5626 5624 5622 5620 5618 5616 5614 5612 5609 5606 5603 5600 5598 5596 5594 5592 5591 5590
5635 5638 5640 5641 5642 5643 5644 5645 5645 5645 5644 5643 5642 5641 5640 5639 5637 5635 5632 5630 5627 5625 5623 5621 5619 5618 5616 5614 5612 5611 5609 5607 5605 5602 5599 5596 5594 5592 5590 5588 5586 5585 5583
5627 5630 5632 5633 5634 5635 5636 5637 5637 5637 5636 5635 5634 5633 5632 5630 5628 5626 5624 5621 5618 5616 5614 5613 5611 5609 5608 5606 5605 5603 5602 5600 5598 5596 5593 5591 5588 5586 5583 5582 5580 5578 5577
5620 5622 5623 5625 5626 5627 5628 5629 5629 5629 5629 5628 5627 5626 5624 5622 5620 5618 5616 5613 5611 5609 5607 5605 5603 5601 5599 5598 5597 5596 5595 5594 5592 5590 5588 5585 5583 5581 5578 5576 5574 5572 5571
5612 5614 5616 5617 5618 5619 5620 5621 5621 5621 5621 5620 5619 5618 5617 5615 5613 5611 5608 5606 5604 5601 5599 5597 5596 5594 5592 5591 5590 5589 5589 5588 5586 5585 5583 5581 5578 5575 5573 5571 5569 5567 5565
5604 5606 5608 5610 5611 5612 5612 5613 5613 5613 5613 5613 5612 5611 5609 5608 5606 5604 5601 5599 5597 5594 5592 5590 5589 5587 5585 5584 5583 5583 5582 5582 5580 5579 5577 5575 5572 5570 5568 5566 5565 5563 5561
5596 5598 5600 5602 5603 5604 5605 5605 5606 5606 5605 5605 5604 5603 5602 5600 5599 5597 5595 5592 5590 5588 5586 5584 5582 5581 5579 5578 5578 5577 5577 5576 5575 5573 5571 5569 5567 5565 5563 5561 5560 5558 5557
5587 5590 5592 5594 5595 5596 5597 5598 5598 5598 5598 5597 5597 5596 5595 5594 5592 5590 5588 5586 5584 5582 5579 5577 5576 5575 5574 5573 5573 5572 5572 5571 5569 5568 5566 5564 5562 5560 5558 5556 5555 5554 5552
5579 5581 5584 5586 5587 5588 5589 5590 5590 5590 5590 5590 5589 5588 5588 5587 5585 5583 5582 5580 5578 5576 5574 5572 5571 5570 5569 5569 5568 5567 5567 5566 5564 5562 5561 5559 5557 5555 5554 5552 5551 5550 5548
5571 5573 5575 5577 5579 5580 5581 5582 5583 5583 5583 5582 5582 5581 5581 5580 5579 5577 5575 5573 5572 5570 5569 5567 5566 5565 5564 5564 5563 5562 5561 5560 5559 5558 5556 5554 5552 5551 5549 5548 5547 5545 5544
5563 5565 5567 5569 5571 5572 5574 5575 5575 5575 5575 5575 5575 5574 5574 5573 5572 5571 5569 5568 5566 5565 5563 5562 5561 5561 5560 5559 5558 5558 5556 5555 5554 5552 5551 5549 5548 5546 5545 5544 5542 5541 5539
5555 5557 5559 5561 5563 5564 5565 5566 5567 5568 5568 5568 5568 5568 5567 5566 5565 5564 5563 5562 5560 5559 5558 5557 5557 5557 5556 5555 5554 5553 5551 5550 5549 5547 5546 5545 5543 5542 5540 5539 5538 5536 5534
5547 5549 5551 5553 5555 5556 5558 5559 5560 5560 5561 5561 5561 5561 5561 5560 5559 5558 5557 5556 5555 5554 5553 5553 5552 5552 5551 5550 5549 5548 5547 5545 5544 5543 5542 5540 5539 5537 5536 5535 5533 5531 5529
5540 5542 5543 5545 5547 5548 5550 5551 5552 5553 5554 5555 5555 5555 5555 5554 5553 5552 5551 5550 5549 5549 5548 5548 5547 5546 5546 5545 5544 5543 5541 5540 5539 5538 5537 5535 5534 5533 5532 5530 5528 5526 5524